Vertical_Velocity
-0 -0 -4 -6 3 1 2 1 3 0 0 -1 1 -0 -2 0 2 4 2 1 -2 -2 2 0 -0 -2 1 -2 1 2 0 -1 -3 0 -3 -1 -1 -3 -2 -2 2 -1 -0 1 1
2 -5 -3 -3 -5 4 2 -1 3 1 2 2 -1 -1 -0 0 -1 11 -22 4 0 1 -1 0 -1 0 1 -2 -0 2 -1 -3 2 1 -0 -1 -1 1 -1 -2 0 -2 0 -0 0
-4 -2 -2 -2 -1 -1 3 1 -1 5 1 0 3 2 1 1 -1 15 0 -2 1 -0 -1 -2 1 0 2 -2 1 4 4 -1 -1 2 3 -0 -1 -2 -1 0 -1 -1 -1 -1 -1
1 -7 -2 3 2 -0 -0 4 2 -0 6 1 3 2 -0 -1 1 -1 2 5 4 0 2 -5 -1 2 -1 4 -2 0 -5 2 -0 0 1 -1 2 2 1 -2 1 0 1 0 -1
-5 -6 0 4 -1 -0 -0 0 2 1 3 6 2 1 -7 -12 27 5 2 -7 -1 4 0 -2 -0 -4 3 -2 -5 4 -3 -4 0 -1 1 -1 1 2 -1 0 1 -0 0 0 0
2 -6 -3 -3 4 -2 -2 1 -1 1 4 3 8 -2 -13 -22 38 -3 -5 -1 2 1 1 2 6 -3 -4 2 -3 5 -4 -4 -6 2 -0 1 -2 2 0 -5 1 -1 0 -1 0
2 -4 -6 -2 -1 1 3 -1 1 -0 3 6 7 -6 -20 6 27 -8 3 5 1 -0 1 7 -3 -3 8 -6 -2 1 -1 -6 1 2 8 -3 -0 8 -1 -3 -6 6 -1 -0 1
-2 -3 -5 -6 -4 -0 -2 4 4 -3 2 5 4 -8 -41 13 17 -9 0 10 8 6 0 1 -3 -2 -1 -1 -5 -3 -1 -5 6 -2 4 -4 12 -2 -1 -6 3 -5 5 0 0
-2 -3 -1 -5 -2 -4 -0 -1 6 5 -3 6 2 -0 -21 11 -5 22 -1 9 -2 0 15 -3 -14 7 -6 -0 -5 -9 2 8 -5 -1 -4 -7 9 1 -3 0 -1 -0 -5 1 3
-7 -2 -4 -3 -5 -3 -0 -1 2 2 8 0 7 -6 -25 12 24 14 -2 11 0 8 1 -6 -14 1 -4 -14 -2 13 16 1 -3 2 -4 -6 9 1 -3 -2 1 -1 -3 -3 -3
2 -1 -3 -2 -3 -7 -0 -2 3 -2 1 6 3 -11 -1 3 -1 -7 -4 8 5 -8 -16 3 -13 -29 21 11 15 -0 -6 -2 3 -1 -7 -1 4 1 -5 -3 0 1 1 -3 -2
-0 0 -3 -4 -3 -4 -5 -7 -3 0 -1 7 0 -11 1 7 3 19 -13 -14 -10 -20 15 -7 -43 22 9 -1 -2 1 -4 2 -3 1 -3 -3 2 -1 -5 4 0 -2 1 1 -1
1 0 1 2 -3 0 -4 0 -5 -5 -8 16 7 -13 9 -12 3 19 -7 16 -8 15 -7 -11 35 8 4 3 -7 3 -4 4 11 -5 -7 -2 -8 -5 8 -4 -3 2 1 1 1
-2 -2 0 1 1 1 -8 -2 -1 -7 -19 8 2 -11 2 -8 -24 19 2 9 -0 -16 16 -3 25 6 5 -2 1 -16 15 7 1 -5 -3 -7 -9 -8 1 3 -4 -3 -3 -0 1
-5 -3 2 -2 8 -0 -5 4 1 -5 -31 12 -3 -8 9 -22 39 -20 19 11 -7 -2 4 -34 5 0 -4 8 -0 15 10 10 10 -4 -3 -6 -21 16 -5 2 11 -3 -4 0 1
-2 -1 -4 -0 -4 -7 -1 -0 1 -1 -33 -13 5 11 19 4 -5 27 8 -6 12 10 -5 12 30 -1 -12 17 6 27 2 1 -3 -3 -31 11 -18 0 7 20 -8 1 -0 1 -0
-1 2 -3 -3 8 -1 -4 5 -3 -17 0 18 -5 0 9 18 16 20 11 -9 -14 -10 -21 1 -18 1 12 2 4 -4 8 -6 -10 -19 -22 11 -24 22 10 2 2 -2 -1 2 -3
1 -1 -1 -2 3 0 -6 2 -9 7 3 4 -5 5 -2 -2 -13 1 18 -19 5 12 16 13 -4 -22 -13 -18 7 7 11 -11 -5 -7 10 2 -45 -5 7 -5 -2 3 2 3 1
2 1 -8 4 3 1 -2 -8 2 12 3 4 7 4 6 9 -6 3 -16 -10 -2 -9 -10 -2 -28 6 2 6 7 -10 -55 48 1 -5 -2 -7 -8 -5 -1 1 -1 1 2 3 1
1 7 -9 -2 -3 1 -4 0 -3 5 5 -1 3 0 3 4 32 31 12 -11 -15 -13 10 -1 -3 8 10 17 11 -25 71 -7 -20 -19 -14 -16 -13 -3 2 1 2 1 1 0 2
6 8 -11 -6 -3 -3 -5 -2 -3 5 -3 -11 2 2 5 -3 -22 29 20 13 8 1 -1 6 -4 15 22 -11 -23 -12 -26 -17 16 -3 -3 -4 -17 10 2 5 2 -2 -4 0 -2
1 9 -2 -0 5 -8 2 -4 -1 -1 2 -7 -1 1 -3 10 6 -20 3 90 37 21 -15 -14 12 3 -33 2 14 5 -1 16 12 -27 -12 -4 -18 1 3 -1 -0 2 -1 -1 -2
2 6 -11 -0 6 -6 4 0 3 -5 -2 -0 -3 3 2 1 4 8 -7 -6 13 9 -25 30 -18 13 13 12 13 3 -10 -17 9 13 -22 5 -11 3 -2 1 2 -1 -1 -1 5
-3 -5 2 -1 2 1 3 1 -0 -3 -1 -3 3 -0 4 2 4 -3 8 20 37 8 -14 27 6 1 -25 -32 17 -6 17 17 10 11 -1 -32 8 6 4 2 0 -1 -1 -1 3
-2 4 5 6 -0 2 2 -2 1 -0 -5 -0 0 1 -2 -2 -7 -2 13 8 14 15 -2 12 -25 -2 8 7 1 -1 26 10 -18 -14 -23 30 -6 6 2 1 3 -4 -5 -3 3
-2 -3 -2 9 4 -1 2 9 1 3 -3 1 -4 -3 -0 -2 -12 -3 3 17 6 2 47 17 -10 -17 4 9 -4 -2 3 5 -2 -8 -31 -5 -14 4 0 -6 -7 -1 -3 1 6
-3 2 -7 17 5 -0 8 8 6 -3 -1 -1 -5 0 -5 3 -10 -5 0 5 7 15 17 22 8 1 -30 26 18 -0 -50 -36 8 26 11 -46 61 13 -7 -4 -2 2 -2 1 2
Height
5758 5755 5753 5753 5751 5750 5752 5754 5757 5760 5762 5766 5769 5772 5774 5779 5783 5788 5793 5795 5800 5804 5809 5813 5815 5818 5821 5821 5823 5825 5826 5827 5829 5831 5834 5836 5838 5839 5840 5841 5843 5844 5847 5849 5851
5746 5741 5737 5735 5735 5734 5736 5738 5742 5747 5751 5753 5756 5760 5763 5767 5774 5780 5779 5786 5790 5796 5800 5803 5807 5811 5815 5816 5819 5820 5821 5823 5826 5829 5831 5832 5834 5837 5839 5840 5842 5843 5845 5847 5849
5732 5727 5723 5718 5717 5717 5718 5722 5726 5731 5737 5740 5743 5747 5750 5754 5762 5768 5769 5775 5780 5786 5790 5795 5798 5803 5807 5809 5814 5817 5818 5818 5821 5824 5827 5829 5830 5833 5835 5838 5839 5841 5842 5844 5847
5715 5710 5705 5702 5699 5700 5701 5703 5709 5715 5721 5727 5730 5732 5735 5741 5751 5755 5761 5765 5770 5774 5779 5784 5789 5794 5798 5803 5806 5810 5810 5813 5816 5819 5822 5824 5828 5830 5832 5835 5837 5838 5840 5842 5845
5700 5694 5689 5685 5684 5684 5685 5687 5691 5698 5705 5710 5714 5716 5718 5726 5743 5743 5748 5753 5759 5765 5769 5774 5778 5784 5789 5796 5797 5803 5804 5807 5810 5813 5816 5819 5822 5825 5828 5830 5833 5836 5837 5839 5841
5685 5678 5674 5671 5670 5668 5669 5670 5674 5680 5687 5693 5697 5700 5703 5714 5734 5729 5736 5742 5748 5755 5760 5764 5769 5773 5778 5784 5787 5797 5796 5798 5802 5807 5810 5813 5815 5819 5823 5823 5828 5831 5833 5835 5837
5671 5664 5659 5656 5653 5653 5653 5653 5657 5662 5669 5674 5679 5680 5686 5708 5720 5718 5727 5733 5738 5744 5750 5754 5757 5761 5769 5773 5777 5785 5789 5791 5795 5802 5805 5806 5809 5818 5814 5816 5821 5826 5828 5830 5832
5657 5649 5645 5642 5638 5636 5636 5638 5641 5644 5650 5656 5659 5663 5672 5696 5703 5711 5713 5723 5727 5730 5739 5742 5744 5749 5756 5761 5767 5774 5778 5781 5789 5793 5798 5798 5806 5810 5807 5809 5816 5817 5821 5825 5826
5644 5636 5630 5626 5624 5621 5621 5621 5624 5628 5633 5637 5643 5645 5660 5681 5691 5700 5701 5709 5712 5718 5724 5728 5733 5739 5745 5750 5756 5762 5766 5774 5783 5784 5787 5789 5801 5801 5799 5804 5808 5811 5814 5817 5820
5630 5623 5617 5612 5608 5605 5605 5605 5606 5610 5616 5619 5626 5626 5650 5676 5684 5684 5686 5695 5698 5703 5709 5716 5722 5727 5734 5739 5746 5753 5761 5769 5775 5776 5777 5780 5790 5791 5791 5797 5802 5804 5807 5809 5813
5619 5611 5606 5601 5594 5589 5587 5588 5591 5592 5598 5603 5611 5620 5636 5648 5656 5669 5670 5678 5682 5686 5696 5703 5705 5716 5732 5736 5742 5747 5750 5756 5762 5762 5762 5770 5778 5782 5786 5788 5794 5798 5799 5802 5806
5606 5599 5594 5588 5581 5575 5572 5570 5572 5575 5582 5588 5597 5609 5623 5631 5640 5656 5653 5661 5669 5680 5686 5687 5694 5715 5720 5723 5727 5735 5739 5746 5751 5752 5752 5760 5768 5775 5777 5781 5787 5789 5791 5795 5797
5595 5586 5579 5576 5569 5564 5559 5559 5558 5558 5562 5577 5583 5595 5615 5612 5622 5641 5643 5654 5661 5665 5674 5680 5699 5704 5704 5711 5717 5726 5732 5738 5741 5741 5744 5748 5754 5763 5770 5774 5776 5782 5785 5785 5788
5584 5576 5569 5565 5559 5551 5546 5548 5547 5545 5544 5565 5569 5586 5594 5600 5605 5625 5634 5640 5643 5656 5666 5669 5686 5683 5692 5698 5707 5715 5725 5727 5728 5730 5734 5737 5740 5750 5758 5765 5769 5773 5775 5777 5779
5573 5565 5556 5551 5548 5540 5536 5536 5534 5534 5529 5546 5559 5566 5581 5578 5607 5605 5624 5622 5631 5644 5645 5664 5670 5673 5677 5692 5699 5708 5713 5715 5717 5719 5721 5726 5724 5739 5747 5756 5763 5765 5764 5769 5771
5560 5553 5545 5539 5532 5527 5524 5522 5521 5521 5519 5533 5542 5557 5560 5571 5580 5598 5600 5609 5623 5627 5634 5649 5657 5660 5678 5685 5689 5696 5699 5701 5706 5708 5705 5718 5717 5721 5738 5750 5752 5755 5756 5759 5761
5549 5542 5533 5525 5522 5513 5512 5509 5507 5505 5517 5527 5528 5537 5545 5557 5567 5577 5585 5593 5602 5611 5618 5633 5638 5654 5659 5667 5673 5677 5684 5688 5691 5692 5698 5705 5706 5716 5730 5738 5742 5746 5747 5749 5752
5538 5529 5520 5513 5509 5503 5496 5495 5492 5496 5502 5511 5515 5523 5534 5545 5553 5561 5573 5580 5588 5598 5612 5615 5623 5635 5647 5653 5662 5666 5672 5677 5679 5683 5693 5695 5701 5712 5717 5727 5728 5732 5736 5738 5740
5525 5517 5507 5502 5496 5490 5483 5479 5481 5485 5491 5499 5506 5514 5527 5537 5544 5550 5557 5570 5579 5587 5599 5608 5616 5633 5637 5648 5654 5654 5656 5673 5673 5677 5681 5687 5696 5702 5705 5714 5718 5722 5725 5727 5729
5516 5504 5495 5489 5484 5477 5473 5469 5470 5476 5481 5487 5494 5503 5511 5521 5528 5540 5546 5557 5567 5578 5593 5601 5611 5618 5632 5633 5639 5644 5662 5656 5659 5665 5669 5676 5684 5691 5698 5702 5710 5712 5715 5717 5719
5502 5494 5483 5479 5472 5467 5465 5462 5461 5467 5470 5475 5485 5494 5501 5507 5512 5512 5528 5548 5560 5573 5581 5595 5598 5610 5613 5612 5625 5636 5634 5642 5652 5656 5661 5667 5672 5686 5690 5694 5696 5702 5704 5707 5710
5492 5485 5473 5470 5466 5460 5458 5458 5458 5460 5464 5467 5473 5483 5492 5497 5503 5510 5514 5526 5544 5564 5564 5582 5583 5591 5599 5614 5622 5622 5630 5637 5639 5651 5654 5657 5666 5676 5681 5683 5686 5691 5695 5699 5702
5481 5477 5462 5461 5458 5454 5452 5452 5452 5455 5458 5460 5464 5473 5481 5488 5492 5499 5503 5516 5530 5541 5550 5565 5561 5577 5584 5594 5602 5606 5617 5627 5635 5638 5640 5648 5657 5665 5668 5674 5679 5682 5685 5688 5692
5470 5467 5458 5452 5449 5448 5446 5447 5446 5449 5451 5452 5457 5461 5469 5475 5481 5491 5496 5499 5507 5523 5535 5546 5551 5561 5567 5589 5601 5599 5608 5612 5619 5620 5635 5638 5652 5655 5660 5665 5669 5673 5675 5678 5680
5458 5455 5449 5444 5439 5439 5438 5438 5438 5442 5445 5446 5450 5452 5457 5461 5465 5474 5479 5489 5501 5513 5528 5535 5538 5550 5564 5573 5579 5592 5599 5603 5605 5623 5619 5642 5640 5647 5652 5655 5659 5661 5663 5667 5671
5446 5442 5439 5437 5431 5429 5429 5430 5431 5432 5437 5440 5440 5443 5450 5453 5460 5469 5475 5483 5488 5499 5506 5521 5530 5543 5550 5561 5567 5575 5584 5592 5601 5614 5618 5624 5629 5635 5639 5642 5646 5650 5655 5659 5664
5433 5430 5427 5427 5422 5419 5421 5422 5424 5423 5429 5431 5433 5438 5441 5444 5446 5453 5465 5473 5480 5490 5492 5506 5521 5528 5539 5550 5557 5558 5569 5583 5595 5599 5608 5611 5626 5629 5632 5635 5638 5642 5646 5649 5655